     2              OBSERVATION DATA    GPS                 RINEX VERSION / TYPE
ASRINEXO V2.2.0 UX USGS 10-MAR-94 10:36                     PGM / RUN BY / DATE
                                                            COMMENT
Original Marker Name: WRM1                                  COMMENT
Campaign Name: USGS-Tejon Monit                             COMMENT
4-Character Station Name: WHAU                              COMMENT
6-Character Antenna Code: ASHL12                            COMMENT
Vertical Measurement Point: BBE                             COMMENT
Vertical Offset to Rinex Ref. Point: 0.0595                 COMMENT
Radial Measurement Point: EGP                               COMMENT
Radial Offset to Rinex Ref. Point: 0.1424                   COMMENT
Antenna Height from Field Measurement: 1.2160 m             COMMENT
Additional Antenna Identification Info.:                    COMMENT
Original Ashtech L1/L2                                      COMMENT
Original XYZ: 5995836.3800 0.0000 2167696.7900              COMMENT
New XYZ position is based on association with SCEC monument COMMENT
E1E9L2T1+0011. Position of that monument is believed to be  COMMENT
valid to within 1 m horizontally; vertical accuracy         COMMENT
should be no worse than 3-times this value.                 COMMENT
                                                            COMMENT
Revised Rinex header created by UCSD GPS archive for        COMMENT
GSAC on 26-May-2001 (2001:146) 19:04:24 GMT                 COMMENT
For assistance contact dagnew@ucsd.edu or hjohnson@ucsd.edu COMMENT
                                                            COMMENT
WRM1                                                        MARKER NAME
                                                            MARKER NUMBER
CHS US GEOLOGICAL SURVEY                                    OBSERVER / AGENCY
762 ASHTECH L-XII 6A                                        REC # / TYPE / VERS
745 ASHTECH GEODETIC L                                      ANT # / TYPE
 -2528846.5919 -4610856.5944  3599147.6419                  APPROX POSITION XYZ
        1.1481        0.0000        0.0000                  ANTENNA: DELTA H/E/N
     1     2     0                                          WAVELENGTH FACT L1/2
     3    C1    L1    L2                                    # / TYPES OF OBSERV
    30                                                      INTERVAL
  1991    12     4    15    54   30.000000                  TIME OF FIRST OBS
  1991    12     4    18     7   30.000000                  TIME OF LAST OBS
                                                            END OF HEADER
 91 12  4 15 54 30.0000000  0  3 16 20 23
  23406241.303       82290.235 6     64122.402 6
  23377673.778       95367.257 6     74311.820 4
  23508646.510      -98283.502 6    -76584.780 4
 91 12  4 15 55  0.0000000  0  3 16 20 23
  31216794.766       79694.843 6     62099.645 7
  31190748.798       92290.598 6     71914.172 5
  31284325.416      -94539.351 6    -73667.731 2
 91 12  4 15 55 30.0000000  0  5 17 16 20 23  3
  29620073.458      -70346.856 8    -54815.605 9
  31532624.320      163959.854 6    127760.542 6
  31509091.811      189781.924 6    147881.254 3
  31565255.529     -193678.627 6   -150919.075 4
  29302871.741      -70358.146 8    -54824.195 9
 91 12  4 15 56  0.0000000  0  5 17 16 20 23  3
  21219135.992      -34873.201 8    -27173.260 9
  23154571.820       83412.697 6     64996.476 6
  23133555.179       96386.911 6     75106.038 5
  23152265.512      -97145.630 6    -75698.949 5
  20901952.580      -34811.451 8    -27125.281 9
 91 12  4 15 56 30.0000000  0  5 17 16 20 23  3
  21212472.207      -69895.986 8    -54463.793 9
  23170782.496      168597.458 6    131374.037 5
  23152257.729      194688.841 6    151704.738 4
  23133558.163     -195446.839 6   -152297.268 5
  20895304.379      -69723.671 8    -54329.653 9
 91 12  4 15 57  0.0000000  0  5 17 16 20 23  3
  21205891.172     -104486.081 8    -81417.146 9
  23187083.408      254257.218 6    198121.749 6
  23171041.230      293379.410 6    228606.301 5
  23114934.767     -293322.936 6   -228564.304 3
  20888753.916     -104153.275 8    -81157.957 9
 91 12  4 15 57 30.0000000  0  5 17 16 20 23  3
  21199388.976     -138640.699 8   -108031.180 9
  23203475.776      340377.580 6    265228.369 5
  23189888.582      392439.027 6    305795.415 5
  23096392.008     -390768.067 6   -304495.537 5
  20882293.985     -138106.946 8   -107615.401 9
 91 12  4 15 58  0.0000000  0  5 17 16 20 23  3
  21192980.000     -172323.685 8   -134277.711 9
  23219952.062      426983.333 6    332713.249 5
  23208811.476      491877.440 6    383279.669 5
  23077937.670     -487742.225 6   -380059.784 5
  20875931.200     -171552.651 8   -133677.031 9
 91 12  4 15 58 30.0000000  0  5 17 16 20 23  3
  21186657.385     -205539.429 8   -160160.149 9
  23236525.493      514041.984 7    400551.023 2
  23227800.332      591662.212 6    461033.838 5
  23059572.084     -584253.221 6   -455263.129 5
  20869658.928     -204502.936 8   -159352.619 9
 91 12  4 15 59  0.0000000  0  5 17 16 20 23  3
  21180425.598     -238306.588 8   -185693.038 9
  23253173.559      601543.716 6    468734.057 4
  23246854.836      691775.842 6    539044.235 4
  23041294.342     -680298.784 6   -530103.813 4
  20863480.818     -236966.975 8   -184649.318 9
 91 12  4 15 59 30.0000000  0  5 17 16 20 23  3
  21174273.262     -270645.416 8   -210892.169 9
  23269905.875      689481.691 6    537257.038 4
  23265961.812      792205.256 6    617300.721 3
  23023104.741     -775885.795 6   -604587.173 5
  20857394.723     -268947.694 8   -209569.410 9
 91 12  4 16  0  0.0000000  0  5 17 16 20 23  3
  21168200.953     -302550.683 8   -235753.452 9
  23286727.240      777875.120 6    606134.901 2
  23285137.734      892969.934 6    695818.467 4
  23005002.374     -871013.974 6   -678712.998 5
  20851405.774     -300425.727 8   -234097.797 9
 91 12  4 16  0 30.0000000  0  5 17 16 20 23  3
  21162194.919     -334092.724 8   -260331.697 9
  23303621.144      866652.966 6    675312.315 4
  23304370.317      994022.900 6    774560.830 5
  22986976.456     -965752.567 6   -752535.252 3
  20845500.166     -331459.896 8   -258280.311 9
 91 12  4 16  1  0.0000000  0  5 17 16 20 23  3
  21156274.322     -365221.507 8   -284587.922 9
  23320597.781      955878.983 6    744838.942 4
  23323665.564     1095430.865 6    853579.820 3
  22969033.863    -1060037.382 6   -826003.922 5
  20839688.389     -361979.840 8   -282062.125 9
 91 12  4 16  1 30.0000000  0  5 17 16 20 23  3
  21150414.574     -396010.193 8   -308579.139 9
  23337644.584     1045466.914 6    814647.576 5
  23343019.862     1197112.004 6    932811.660 4
  22951162.641    -1153957.416 6   -899188.349 4
  20833967.143     -392062.908 8   -305503.509 9
 91 12  4 16  2  0.0000000  0  5 17 16 20 23  3
  21144621.084     -426451.257 8   -332299.490 9
  23354763.038     1135398.269 6    884723.796 5
  23362414.034     1299054.729 6   1012247.338 5
  22933362.163    -1247507.599 6   -972084.568 5
  20828322.346     -421719.847 8   -328612.851 9
 91 12  4 16  2 30.0000000  0  5 17 16 20 23  3
  21138891.741     -456549.637 8   -355752.807 9
  23371936.949     1225646.310 6    955046.790 5
  23381862.476     1401247.882 6   1091878.141 5
  22915629.740    -1340677.450 6  -1044684.433 5
  20822761.206     -450957.165 8   -351395.210 9
 91 12  4 16  3  0.0000000  0  5 17 16 20 23  3
  21133230.769     -486310.329 8   -378942.995 9
  23389168.115     1316192.054 6   1025601.742 5
  23401352.572     1503671.863 6   1171688.831 5
  22897971.969    -1433465.469 6  -1116986.765 5
  20817273.793     -479781.104 8   -373855.462 9
 91 12  4 16  3 30.0000000  0  5 17 16 20 23  3
  21127637.834     -515709.164 8   -401851.218 9
  23406453.550     1407035.132 6   1096388.387 5
  23420889.749     1606331.549 6   1251683.173 4
  22880393.929    -1525855.392 6  -1188978.893 4
  20811870.333     -508184.188 8   -395987.773 9
 91 12  4 16  4  0.0000000  0  5 17 16 20 23  3
  21122109.361     -544760.353 8   -424488.539 9
  23423799.241     1498157.933 6   1167392.991 6
  23440467.706     1709213.218 6   1331850.502 5
  22862888.149    -1617844.364 6  -1260658.583 4
  20806544.824     -536173.803 8   -417797.901 9
 91 12  4 16  4 30.0000000  0  5 17 16 20 23  3
  21116643.551     -573490.732 8   -446875.884 9
  23441182.711     1589548.461 6   1238606.198 5
  23460082.815     1812295.732 6   1412174.308 4
  22845456.411    -1709452.736 6  -1332041.718 5
  20801294.262     -563756.907 8   -439291.255 9
 91 12  4 16  5  0.0000000  0  5 17 16 20 23  3
  21111236.200     -601892.169 8   -469006.916 9
  23458637.222     1681235.531 6   1310050.494 5
  23479737.816     1915560.557 6   1492640.191 4
  22828093.637    -1800682.915 6  -1403130.133 5
  20796123.746     -590928.685 8   -460464.099 9
 91 12  4 16  5 30.0000000  0  5 17 16 20 23  3
  21105893.589     -629971.379 8   -490886.868 9
  23476137.312     1773234.211 6   1381737.586 5
  23499416.496     2019003.417 6   1573244.801 4
  22810804.310    -1891546.828 6  -1473933.181 5
  20791031.772     -617693.041 8   -481319.479 9
 91 12  4 16  6  0.0000000  0  5 17 16 20 23  3
  21100612.752     -657728.003 8   -512515.444 9
  23493712.648     1865571.248 6   1453688.335 5
  23519141.943     2122651.325 6   1654009.664 3
  22793584.522    -1982037.600 6  -1544445.451 5
  20786020.436     -644030.525 8   -501842.235 9
 91 12  4 16  6 30.0000000  0  5 17 16 20 23  3
  21095393.671     -685152.369 8   -533885.123 9
  23511341.643     1958251.914 6   1525906.844 5
  23538904.559     2226501.535 6   1734931.685 3
  22776430.103    -2072166.671 6  -1614675.876 4
  20781087.661     -669944.339 8   -522034.849 9
 91 12  4 16  7  0.0000000  0  5 17 16 20 23  3
  21090239.627     -712242.583 8   -554994.408 9
  23529048.885     2051268.389 6   1598387.027 5
  23558707.939     2330570.795 6   1816024.393 3
  22759349.132    -2161944.812 6  -1684632.845 5
  20776237.303     -695441.269 8   -541902.613 9
 91 12  4 16  7 30.0000000  0  5 17 16 20 23  3
  21085187.824     -738790.581 8   -575681.198 9
  23546849.661     2144818.162 6   1671282.765 4
  23578604.572     2435094.924 6   1897472.024 4
  22742370.088    -2251162.859 6  -1754153.375 5
  20771505.083     -720305.025 8   -561276.999 9
 91 12  4 16  8  0.0000000  0  5 17 16 20 23  3
  21080198.684     -765005.553 8   -596108.480 9
  23564708.283     2238660.548 6   1744406.520 3
  23598534.169     2539839.735 6   1979091.132 3
  22725459.099    -2340030.282 6  -1823400.698 5
  20766852.000     -744752.984 8   -580327.388 9
 91 12  4 16  8 30.0000000  0  5 17 16 20 23  3
  21075278.194     -790855.640 8   -616251.433 9
  23582615.801     2332800.116 6   1817761.844 3
  23618507.845     2644798.989 6   2060877.347 3
  22708624.246    -2428512.195 6  -1892347.634 4
  20762284.074     -768762.934 8   -599036.474 9
 91 12  4 16  9  0.0000000  0  5 17 16 20 23  3
  21070424.852     -816370.155 8   -636132.899 9
  23600586.262     2427209.384 6   1891327.318 3
  23638516.893     2749950.619 6   2142813.456 3
  22691857.152    -2516613.453 6  -1960997.962 5
  20757796.471     -792344.307 8   -617411.603 9
 91 12  4 16  9 30.0000000  0  5 17 16 20 23  3
  21065630.265     -841569.574 8   -655768.826 9
  23618600.192     2521866.529 6   1965085.936 3
  23658549.935     2855251.397 5   2224866.248 4
  22675166.804    -2604323.653 6  -2029343.564 5
  20753389.523     -815507.152 8   -635460.604 9
 91 12  4 16 10  0.0000000  0  5 17 16 20 23  3
  21060887.855     -866482.035 8   -675181.142 9
  23636650.680     2616731.482 5   2039006.497 4
  23678609.344     2960661.022 5   2307003.421 4
  22658547.513    -2691650.769 6  -2097390.658 6
  20749056.320     -838274.921 8   -653201.755 9
 91 12  4 16 10 30.0000000  0  5 17 16 20 23  3
  21056197.306     -891123.053 8   -694381.944 9
  23654749.156     2711805.970 5   2113090.323 4
  23698695.732     3066186.163 6   2389231.043 3
  22641999.873    -2778613.745 6  -2165154.011 5
  20744798.973     -860654.613 8   -670640.508 9
 91 12  4 16 11  0.0000000  0  5 17 16 20 23  3
  21051562.214     -915489.743 8   -713368.993 9
  23672883.300     2807111.140 5   2187353.914 3
  23718805.816     3171853.089 6   2471568.666 5
  22625520.271    -2865211.877 6  -2232633.077 5
  20740616.871     -882631.240 8   -687765.189 9
 91 12  4 16 11 30.0000000  0  5 17 16 20 23  3
  21046981.671     -939571.357 8   -732133.887 9
  23691061.820     2902661.912 5   2261808.863 3
  23738938.377     3277661.111 6   2554016.212 4
  22609108.446    -2951450.060 6  -2299831.666 5
  20736510.015     -904197.546 8   -704570.146 9
 91 12  4 16 12  0.0000000  0  5 17 16 20 23  3
  21042453.305     -963345.646 8   -750659.320 9
  23709293.406     2998480.557 5   2336472.548 3
  23759101.824     3383627.062 6   2636587.324 3
  22592767.050    -3037341.528 6  -2366760.078 5
  20732490.096     -925339.720 8   -721044.601 9
 91 12  4 16 12 30.0000000  0  5 17 16 20 23  3
  21037981.914     -986845.484 8   -768970.901 9
  23727581.042     3094543.505 6   2411326.596 2
  23779285.636     3489722.301 6   2719258.707 3
  22576480.535    -3122925.503 6  -2433448.897 6
  20728541.530     -946082.744 8   -737208.036 9
 91 12  4 16 13  0.0000000  0  5 17 16 20 23  3
  21033562.663    -1010076.766 8   -787073.217 9
  23745901.049     3190836.306 6   2486359.748 4
  23799497.647     3595926.229 5   2802015.265 3
  22560252.461    -3208185.036 6  -2499884.917 6
  20724669.117     -966427.433 8   -753061.075 9
 91 12  4 16 13 30.0000000  0  5 17 16 20 23  3
  21029198.591    -1033019.240 8   -804950.486 9
  23764265.134     3287361.477 6   2561573.964 5
  23819729.151     3702245.564 5   2884861.743 5
  22544096.055    -3293087.321 7  -2566042.572 6
  20720877.639     -986354.797 8   -768588.931 9
 91 12  4 16 14  0.0000000  0  5 17 16 20 23  3
  21024882.471    -1055697.430 8   -822621.822 9
  23782674.189     3384082.970 6   2636941.144 5
  23839983.130     3808661.933 5   2967783.837 4
  22528009.781    -3377643.324 6  -2631930.388 5
  20717159.312    -1005887.336 8   -783809.125 9
 91 12  4 16 14 30.0000000  0  5 17 16 20 23  3
  21020612.229    -1078121.527 8   -840095.172 9
  23801113.834     3480986.733 6   2712450.369 3
  23860251.488     3915169.979 6   3050777.363 4
  22511988.579    -3461840.184 6  -2697538.353 6
  20713517.137    -1025029.369 8   -798725.033 9
 91 12  4 16 15  0.0000000  0  5 17 16 20 23  3
  21016402.852    -1100253.961 8   -857341.264 9
  23819593.946     3578108.726 6   2788129.613 4
  23880542.339     4021798.262 6   3133864.572 3
  22496038.417    -3545649.230 6  -2762844.125 6
  20709959.788    -1043749.172 8   -813311.924 9
 91 12  4 16 15 30.0000000  0  5 17 16 20 23  3
  21012246.524    -1122103.502 8   -874366.910 9
  23838119.307     3675445.640 6   2863976.338 5
  23900853.590     4128547.925 6   3217046.344 2
  22480158.719    -3629091.953 6  -2827864.453 5
  20706474.107    -1062052.756 8   -827574.486 9
 91 12  4 16 16  0.0000000  0  5 17 16 20 23  3
  21008140.872    -1143673.562 8   -891174.791 9
  23856684.855     3773001.206 6   2939993.429 4
  23921193.599     4235417.279 5   3300321.404 4
  22464348.263    -3712169.062 7  -2892599.884 6
  20703069.657    -1079942.097 8   -841514.255 9
 91 12  4 16 16 30.0000000  0  5 17 16 20 23  3
  21004085.267    -1164976.507 8   -907774.528 9
  23875287.887     3870764.032 6   3016172.482 5
  23941548.911     4342386.650 5   3383674.388 2
  22448610.051    -3794884.564 7  -2957053.540 6
  20699744.064    -1097422.716 8   -855135.545 9
 91 12  4 16 17  0.0000000  0  5 17 16 20 23  3
  21000083.653    -1186011.956 8   -924165.831 9
  23893931.368     3968731.468 5   3092510.512 4
  23961920.400     4449450.732 5   3467101.152 4
  22432938.098    -3877236.129 7  -3021223.607 5
  20696491.623    -1114489.603 8   -868434.437 9
 91 12  4 16 17 30.0000000  0  5 17 16 20 23  3
  20996131.772    -1206786.467 8   -940353.802 9
  23912609.645     4066882.794 5   3168992.286 4
  23982312.585     4556595.565 6   3550590.868 4
  22417338.092    -3959217.390 7  -3085105.131 6
  20693322.803    -1131149.299 8   -881416.045 9
 91 12  4 16 18  0.0000000  0  5 17 16 20 23  3
  20992229.676    -1227281.561 8   -956324.049 9
  23931321.496     4165232.973 5   3245628.554 3
  24002717.072     4663830.681 6   3634150.915 3
  22401812.755    -4040809.909 7  -3148683.732 6
  20690236.452    -1147380.032 8   -894063.395 9
 91 12  4 16 18 30.0000000  0  5 17 16 20 23  3
  20988378.256    -1247517.694 8   -972092.509 9
  23950075.315     4263756.841 5   3322400.645 3
  24023141.924     4771135.184 6   3717765.027 3
  22386353.956    -4122048.091 7  -3211986.224 6
  20687228.332    -1163198.219 8   -906389.280 9
 91 12  4 16 19  0.0000000  0  5 17 16 20 23  3
  20984571.491    -1267521.344 8   -987679.805 9
  23968853.407     4362429.221 5   3399288.472 2
  24043566.479     4878491.952 5   3801419.865 4
  22370951.504    -4202973.451 7  -3275044.950 6
  20684291.268    -1178629.219 8   -918413.465 9
 91 12  4 16 19 30.0000000  0  5 17 16 20 23  3
  20980807.287    -1287306.353 8  -1003096.732 9
  23987649.804     4461240.752 6   3476284.227 3
  24064009.339     4985894.198 5   3885110.139 3
  22355611.140    -4283597.400 7  -3337868.816 6
  20681427.338    -1193677.657 8   -930139.544 9
 91 12  4 16 20  0.0000000  0  5 17 16 20 23  3
  20977095.556    -1306821.436 8  -1018303.312 9
  24006489.949     4560235.821 6   3553423.000 4
  24084464.764     5093381.696 5   3968866.817 4
  22340334.905    -4363884.090 7  -3400429.877 6
  20678643.470    -1208296.029 8   -941530.503 9
 91 12  4 16 20 30.0000000  0  5 17 16 20 23  3
  20973433.000    -1326063.117 8  -1033296.859 9
  24025361.888     4659392.774 6   3630687.928 2
  24104928.599     5200942.582 5   4052680.706 4
  22325120.444    -4443834.917 7  -3462729.225 7
  20675942.648    -1222491.113 8   -952591.636 9
 91 12  4 16 21  0.0000000  0  5 17 16 20 23  3
  20969812.708    -1345066.567 8  -1048104.773 9
  24044254.506     4758677.343 6   3708052.783 2
  24125403.830     5308530.280 5   4136515.470 3
  22309964.127    -4523474.214 7  -3524785.820 6
  20673316.460    -1236296.562 8   -963349.160 9
 91 12  4 16 21 30.0000000  0  5 17 16 20 23  3
  20966247.873    -1363816.509 8  -1062715.139 9
  24063176.510     4858098.153 6   3785523.306 3
  24145883.248     5416136.475 5   4220364.619 3
  22294872.289    -4602782.496 7  -3586584.467 6
  20670764.034    -1249702.228 8   -973795.168 9
 91 12  4 16 22  0.0000000  0  5 17 16 20 23  3
  20962732.195    -1382281.932 8  -1077103.805 9
  24082124.585     4957678.347 6   3863118.054 4
  24166358.182     5523776.447 5   4304240.120 3
  22279848.489    -4681729.447 7  -3648101.555 6
  20668296.433    -1262684.510 8   -983911.257 9
 91 12  4 16 22 30.0000000  0  5 17 16 20 23  3
  20959270.804    -1400493.769 8  -1091294.870 9
  24101105.954     5057414.036 5   3940833.923 2
  24186852.590     5631442.626 5   4388136.013 3
  22264895.433    -4760318.590 7  -3709339.823 6
  20665904.096    -1275251.927 8   -993704.078 9
 91 12  4 16 23  0.0000000  0  5 17 16 20 23  3
  20955852.865    -1418454.516 8  -1105290.289 9
  24120115.489     5157329.444 5   4018689.887 2
  24207349.703     5739146.026 5   4472060.891 3
  22250009.838    -4838538.015 7  -3770289.984 6
  20663590.895    -1287390.453 8  -1003162.701 9
 91 12  4 16 23 30.0000000  0  5 17 16 20 23  3
  20952479.599    -1436173.910 8  -1119097.638 9
  24139163.099     5257407.146 5   4096672.271 2
  24227846.205     5846872.167 5   4556003.512 3
  22235192.894    -4916393.252 7  -3830956.358 6
  20661362.240    -1299108.227 8  -1012293.477 9
 91 12  4 16 24  0.0000000  0  5 17 16 20 23  3
  20949148.003    -1453678.840 8  -1132737.869 9
  24158232.296     5357631.552 5   4174768.968 2
  24248350.508     5954608.595 5   4639954.156 3
  22220447.302    -4993896.553 7  -3891348.503 6
  20659208.534    -1310421.149 8  -1021108.770 9
 91 12  4 16 24 30.0000000  0  5 17 16 20 23  3
  20945864.675    -1470940.662 8  -1146188.670 9
  24177341.070     5458040.103 5   4253009.675 4
  24268856.328     6062385.882 5   4723936.604 2
  22205770.064    -5071020.699 7  -3951445.191 6
  20657138.764    -1321296.170 8  -1029582.842 8
 91 12  4 16 25  0.0000000  0  5 17 16 20 23  3
  20942625.722    -1487949.829 8  -1159442.595 9
  24196478.619     5558621.682 5   4331384.674 3
  24289366.913     6170193.275 5   4807942.511 2
  22191166.273    -5147755.276 7  -4011238.319 5
  20655154.133    -1331735.674 8  -1037717.562 9
 91 12  4 16 25 30.0000000  0  5 17 16 20 23  3
  20939442.820    -1504684.760 8  -1172482.840 9
  24215656.356     5659389.543 5   4409905.338 3
  24309898.508     6278048.674 5   4891985.791 3
  22176645.232    -5224073.903 7  -4070707.325 6
  20653256.143    -1341721.983 8  -1045499.140 9
 91 12  4 16 26  0.0000000  0  5 17 16 20 23  3
  20936306.702    -1521168.477 8  -1185327.327 9
  24234861.647     5760316.069 5   4488549.128 3
  24330428.898     6385936.493 5   4976054.363 2
  22162197.935    -5300002.741 7  -4129872.606 7
  20651437.603    -1351275.376 8  -1052943.377 9
 91 12  4 16 26 30.0000000  0  5 17 16 20 23  3
  20933218.537    -1537395.533 8  -1197971.819 9
  24254093.340     5861376.238 5   4567297.573 4
  24350959.585     6493859.083 5   5060149.995 3
  22147822.585    -5375536.337 7  -4188729.906 6
  20649700.609    -1360391.546 8  -1060046.928 9
 91 12  4 16 27  0.0000000  0  5 17 16 20 23  3
  20930182.845    -1553333.740 8  -1210391.231 9
  24273350.807     5962583.468 5   4646160.593 3
  24371517.844     6601854.632 5   5144302.466 2
  22133533.579    -5450633.843 7  -4247247.410 6
  20648058.945    -1369035.193 8  -1066782.274 9
 91 12  4 16 27 30.0000000  0  5 17 16 20 23  3
  20927195.995    -1569027.396 8  -1222620.094 9
  24292628.062     6063887.356 5   4725098.459 3
  24392070.728     6709875.877 5   5228474.954 3
  22119309.627    -5525359.087 7  -4305474.853 6
  20646497.621    -1377241.755 8  -1073177.040 9
 91 12  4 16 28  0.0000000  0  5 17 16 20 23  3
  20924256.838    -1584490.404 8  -1234669.229 9
  24311920.901     6165261.619 5   4804091.649 4
  24412625.985     6817899.904 5   5312649.620 2
  22105156.122    -5599739.332 7  -4363433.449 7
  20645016.656    -1385023.109 8  -1079240.473 9
 91 12  4 16 28 30.0000000  0  5 17 16 20 23  3
  20921357.851    -1599712.819 8  -1246530.881 9
  24331227.839     6266716.687 5   4883147.321 3
  24433183.057     6925914.415 5   5396816.850 4
  22091069.765    -5673772.579 7  -4421121.670 6
  20643616.922    -1392376.749 8  -1084970.618 9
 91 12  4 16 29  0.0000000  0  5 17 16 20 23  3
  20918512.523    -1614679.837 8  -1258193.521 9
  24350557.253     6368291.027 5   4962296.374 3
  24453733.236     7033914.194 5   5480972.566 3
  22077048.184    -5747458.713 7  -4478539.415 6
  20642300.233    -1399286.711 8  -1090355.035 9
 91 12  4 16 29 30.0000000  0  5 17 16 20 23  3
  20915708.552    -1629408.177 8  -1269670.190 9
  24369904.973     6469971.338 5   5041527.523 1
  24474271.113     7141863.068 5   5565088.627 2
  22063087.748    -5820820.466 7  -4535704.389 6
  20641065.683    -1405772.377 8  -1095408.839 9
 91 12  4 16 30  0.0000000  0  5 17 16 20 23  3
  20912957.665    -1643850.808 8  -1280924.210 9
  24389281.450     6571793.548 5   5120869.769 2
  24494815.289     7249804.684 5   5649199.039 4
  22049196.258    -5893804.975 7  -4592575.410 7
  20639921.978    -1411797.297 8  -1100103.619 8
 91 12  4 16 30 30.0000000  0  5 17 16 20 23  3
  20910263.421    -1658031.567 8  -1291974.188 9
  24408682.218     6673734.231 5   5200304.276 2
  24515361.263     7357718.866 5   5733288.048 2
  22035377.919    -5966423.741 7  -4649161.439 7
  20638855.019    -1417382.845 8  -1104456.040 9
 91 12  4 16 31  0.0000000  0  5 17 16 20 23  3
  20907603.362    -1672007.181 8  -1302864.309 9
  24428094.085     6775733.166 5   5279783.715 3
  24535879.962     7465579.197 5   5817335.117 2
  22021618.352    -6038726.565 7  -4705501.269 6
  20637870.199    -1422568.060 8  -1108496.519 9
 91 12  4 16 31 30.0000000  0  5 17 16 20 23  3
  20904996.073    -1685710.286 8  -1313542.076 9
  24447527.223     6877846.820 5   5359353.052 1
  24556421.747     7573484.394 5   5901417.095 3
  22007935.829    -6110635.504 7  -4761534.171 6
  20636975.020    -1427276.815 8  -1112165.732 9
 91 12  4 16 32  0.0000000  0  5 17 16 20 23  3
  20902433.753    -1699175.704 8  -1324034.633 9
  24466970.273     6980047.804 5   5438990.394 2
  24576956.029     7681424.660 5   5985526.398 2
  21994323.751    -6182175.424 7  -4817279.530 7
  20636166.778    -1431531.469 8  -1115481.110 9
 91 12  4 16 32 30.0000000  0  5 17 16 20 23  3
  20899911.289    -1712428.397 8  -1334361.438 9
  24486437.597     7082347.974 5   5518704.995 2
  24597503.207     7789395.633 5   6069659.649 2
  21980777.933    -6253351.100 7  -4872741.059 7
  20635442.175    -1435331.637 8  -1118442.336 9
 91 12  4 16 33  0.0000000  0  5 17 16 20 23  3
  20897428.716    -1725470.140 8  -1344523.866 9
  24505926.506     7184759.631 5   5598506.493 2
  24618048.587     7897384.359 5   6153806.728 4
  21967304.951    -6324153.020 7  -4927911.355 7
  20634805.417    -1438669.613 8  -1121043.415 9
 91 12  4 16 33 30.0000000  0  5 17 16 20 23  3
  20894987.500    -1738300.804 8  -1354521.818 9
  24525434.296     7287287.022 5   5678398.182 4
  24638596.358     8005356.340 5   6237940.712 3
  21953910.827    -6394556.312 7  -4982771.037 7
  20634261.005    -1441547.429 8  -1123285.933 9
 91 12  4 16 34  0.0000000  0  5 17 16 20 23  3
  20892584.658    -1750921.845 8  -1364356.427 9
  24544967.564     7389933.886 5   5758382.965 1
  24659131.530     8113275.465 5   6322033.529 3
  21940587.446    -6464553.401 7  -5037314.190 7
  20633796.917    -1443968.260 8  -1125172.368 9
 91 12  4 16 34 30.0000000  0  5 17 16 20 23  3
  20890227.395    -1763315.831 8  -1374014.113 9
  24564532.329     7492704.186 5   5838463.912 3
  24679660.734     8221120.978 5   6406069.013 2
  21927345.907    -6534131.024 7  -5091530.495 7
  20633426.972    -1445923.951 8  -1126696.359 9
 91 12  4 16 35  0.0000000  0  5 17 16 20 23  3
  20887913.898    -1775474.294 8  -1383488.278 9
  24584109.083     7595563.525 4   5918614.242 3
  24700155.736     8328864.190 5   6490024.756 2
  21914186.523    -6603294.076 7  -5145423.769 6
  20633141.277    -1447424.652 8  -1127865.806 9
 91 12  4 16 35 30.0000000  0  5 17 16 20 23  3
  20885651.058    -1787371.433 8  -1392758.819 9
  24603693.026     7698516.351 5   5998837.392 3
  24720653.442     8436536.473 5   6573925.220 3
  21901105.980    -6672041.312 7  -5198993.022 6
  20632939.221    -1448461.431 8  -1128673.758 9
 91 12  4 16 36  0.0000000  0  5 17 16 20 23  3
  20883433.502    -1799017.477 8  -1401833.690 9
  24623301.539     7801548.299 5   6079122.222 3
  24741127.172     8544150.489 5   6657780.294 2
  21888097.680    -6740406.430 7  -5252264.518 7
  20632830.087    -1449047.791 8  -1129130.736 9
 91 12  4 16 36 30.0000000  0  5 17 16 20 23  3
  20881266.900    -1810403.630 8  -1410706.054 9
  24642924.466     7904659.556 5   6159468.842 3
  24761603.606     8651728.738 5   6741607.477 2
  21875158.937    -6808389.995 7  -5305238.712 7
  20632805.500    -1449175.788 8  -1129230.604 9
 91 12  4 16 37  0.0000000  0  5 17 16 20 23  3
  20879150.067    -1821531.896 8  -1419377.466 9
  24662559.660     8007864.777 5   6239888.671 2
  24782077.318     8759304.206 5   6825432.458 4
  21862294.846    -6875979.644 7  -5357905.946 7
  20632871.758    -1448832.883 7  -1128963.445 8
 91 12  4 16 37 30.0000000  0  5 17 16 20 23  3
  20877078.499    -1832403.610 8  -1427848.975 9
  24682224.852     8111188.719 4   6320401.005 2
  24802551.956     8866902.361 5   6909275.145 2
  21849511.706    -6943167.644 7  -5410260.204 7
  20633031.550    -1448005.414 7  -1128318.724 9
 91 12  4 16 38  0.0000000  0  5 17 16 20 23  3
  20875050.103    -1843056.002 8  -1436149.573 9
  24701905.033     8214602.862 5   6400983.632 2
  24823017.885     8974476.483 5   6993099.097 3
  21836797.495    -7009972.548 7  -5462315.950 7
  20633277.371    -1446708.621 8  -1127308.291 9
 91 12  4 16 38 30.0000000  0  5 17 16 20 23  3
  20873071.475    -1853477.245 8  -1444270.061 9
  24721600.186     8318100.226 5   6481631.087 2
  24843482.017     9082011.970 4   7076892.942 1
  21824160.047    -7076386.926 7  -5514067.387 7
  20633614.352    -1444929.895 8  -1125922.335 9
 91 12  4 16 39  0.0000000  0  5 17 16 20 23  3
  20871133.018    -1863648.155 8  -1452195.482 9
  24741313.645     8421689.176 5   6562349.971 4
  24863931.159     9189504.052 4   7160652.942 2
  21811601.736    -7142396.150 7  -5565503.114 7
  20634047.554    -1442656.379 7  -1124150.814 9
 91 12  4 16 39 30.0000000  0  5 17 16 20 23  3
  20869248.813    -1873558.073 8  -1459917.528 9
  24761038.184     8525350.932 5   6643125.573 2
  24884375.503     9296924.159 4   7244356.870 3
  21799111.481    -7208019.953 7  -5616638.518 8
  20634576.086    -1439894.430 8  -1121998.687 9
 91 12  4 16 40  0.0000000  0  5 17 16 20 23  3
  20867413.190    -1883203.412 8  -1467433.418 9
  24780772.635     8629072.258 5   6723947.613 3
  24904801.559     9404260.097 4   7327995.189 2
  21786697.379    -7273264.985 7  -5667478.763 7
  20635191.259    -1436645.829 8  -1119467.352 9
 91 12  4 16 40 30.0000000  0  5 17 16 20 23  3
  20865628.225    -1892580.206 8  -1474740.046 9
  24800523.560     8732860.264 5   6804821.570 3
  24925217.424     9511521.273 4   7411575.255 2
  21774352.222    -7338120.160 7  -5718015.231 7
  20635901.169    -1432913.957 7  -1116559.449 9
 91 12  4 16 41  0.0000000  0  5 17 16 20 23  3
  20863891.526    -1901710.525 8  -1481854.619 9
  24820289.474     8836720.352 5   6885751.703 3
  24945610.219     9618712.440 5   7495100.764 2
  21762086.516    -7402583.941 7  -5768246.708 8
  20636702.203    -1428701.140 7  -1113276.766 9
 91 12  4 16 41 30.0000000  0  5 17 16 20 23  3
  20862198.908    -1910610.831 8  -1488789.952 9
  24840061.390     8940653.632 5   6966738.907 3
  24966005.091     9725846.536 5   7578581.782 3
  21749894.869    -7466652.718 7  -5818170.390 7
  20637598.883    -1424002.886 8  -1109615.822 9
 91 12  4 16 42  0.0000000  0  5 17 16 20 23  3
  20860545.238    -1919302.043 8  -1495562.359 9
  24859863.880     9044668.910 5   7047789.998 2
  24986384.695     9832931.692 5   7662024.664 2
  21737780.841    -7530315.641 7  -5867777.822 8
  20638586.111    -1418818.781 7  -1105576.292 9
 91 12  4 16 42 30.0000000  0  5 17 16 20 23  3
  20858931.756    -1927775.756 8  -1502165.282 9
  24879671.169     9148773.653 5   7128910.776 2
  25006755.887     9939968.781 5   7745430.091 2
  21725748.375    -7593557.038 7  -5917056.792 7
  20639665.652    -1413134.704 8  -1101147.164 9
 91 12  4 16 43  0.0000000  0  4 17 16 23  3
  20857358.758    -1936035.799 8  -1508601.713 9
  24899497.338     9252958.443 5   7210093.947 2
  21713788.153    -7656394.826 7  -5966021.274 8
  20640843.541    -1406958.211 8  -1096334.338 9
 91 12  4 16 43 30.0000000  0  4 17 16 23  3
  20855830.416    -1944066.986 8  -1514859.809 9
  24919331.901     9357207.138 5   7291326.914 1
  21701907.975    -7718835.345 7  -6014676.183 7
  20642107.775    -1400299.752 7  -1091145.962 9
 91 12  4 16 44  0.0000000  0  3 17 23  3
  20854349.137    -1951840.373 8  -1520917.021 9
  21690104.560    -7780853.465 7  -6063001.954 8
  20643468.525    -1393142.187 7  -1085568.663 8
 91 12  4 16 44 30.0000000  0  3 17 23  3
  20852922.424    -1959345.782 8  -1526765.418 9
  21678382.970    -7842448.048 7  -6110997.718 8
  20644928.219    -1385487.238 8  -1079603.796 9
 91 12  4 16 45  0.0000000  0  3 17 23  3
  20851547.277    -1966576.996 8  -1532400.155 9
  21666740.534    -7903614.433 7  -6158659.812 7
  20646481.445    -1377326.526 7  -1073244.837 9
 91 12  4 16 45 30.0000000  0  3 17 23  3
  20850223.399    -1973539.993 8  -1537825.888 9
  21655184.423    -7964359.265 7  -6205993.421 8
  20648132.096    -1368659.746 8  -1066491.519 9
 91 12  4 16 46  0.0000000  0  3 17 23  3
  20848940.878    -1980271.637 8  -1543071.343 9
  21643699.685    -8024706.210 7  -6253017.001 8
  20649873.296    -1359503.714 8  -1059356.975 9
 91 12  4 16 46 30.0000000  0  3 17 23  3
  20847705.734    -1986765.518 8  -1548131.532 9
  21632293.769    -8084660.602 7  -6299734.691 8
  20651708.623    -1349849.877 8  -1051834.541 9
 91 12  4 16 47  0.0000000  0  3 17 23  3
  20846511.668    -1993040.469 8  -1553021.130 9
  21620953.221    -8144243.957 7  -6346163.270 8
  20653638.390    -1339712.653 7  -1043935.430 9
 91 12  4 16 47 30.0000000  0  3 17 23  3
  20845360.756    -1999083.809 8  -1557730.242 9
  21609693.015    -8203430.189 7  -6392282.404 8
  20655659.579    -1329075.905 7  -1035647.099 9
 91 12  4 16 48  0.0000000  0  3 17 23  3
  20844255.721    -2004894.630 8  -1562258.181 9
  21598508.367    -8262200.156 7  -6438077.178 8
  20657782.119    -1317933.930 7  -1026965.086 8
 91 12  4 16 48 30.0000000  0  3 17 23  3
  20843195.062    -2010464.885 8  -1566598.666 9
  21587404.358    -8320547.927 7  -6483542.966 7
  20659999.378    -1306280.380 7  -1017884.436 9
 91 12  4 16 49  0.0000000  0  3 17 23  3
  20842174.556    -2015822.109 8  -1570773.160 9
  21576380.689    -8378484.710 7  -6528688.507 8
  20662315.284    -1294127.135 7  -1008414.424 9
 91 12  4 16 49 30.0000000  0  4 17 23 21  3
  20841202.631    -2020940.063 8  -1574761.214 9
  21565437.064    -8435981.194 7  -6573490.962 8
  24838165.494     -213234.896 4   -166157.207 3
  20664724.112    -1281447.891 8   -998534.549 9
 91 12  4 16 50  0.0000000  0  4 17 23 21  3
  20840275.676    -2025807.357 8  -1578553.948 9
  21554577.968    -8493046.126 7  -6617957.146 7
  24819483.029     -311432.128 4   -242674.432 1
  20667240.259    -1268244.500 8   -988246.250 9
 91 12  4 16 50 30.0000000  0  4 17 23 21  3
  20839392.782    -2030444.986 8  -1582167.729 9
  21543796.246    -8549707.634 7  -6662108.967 8
  24800824.244     -409506.588 4   -319095.972 2
  20669850.253    -1254533.502 8   -977562.407 9
 91 12  4 16 51  0.0000000  0  4 17 23 21  3
  20838551.263    -2034866.914 8  -1585613.432 9
  21533085.861    -8605983.385 7  -6705960.204 8
  24782186.452     -507461.558 4   -395424.352 3
  20672550.500    -1240335.760 7   -966499.297 9
 91 12  4 16 51 30.0000000  0  4 17 23 21  3
  20837766.108    -2039006.855 8  -1588839.410 9
  21522461.802    -8661816.788 7  -6749466.759 8
  24763583.735     -605229.717 4   -471607.171 2
  20675352.359    -1225607.932 7   -955023.140 9
 91 12  4 16 52  0.0000000  0  4 17 23 21  3
  20837021.734    -2042906.572 8  -1591878.200 9
  21511913.616    -8717246.551 7  -6792658.791 8
  24744999.602     -702835.261 4   -547663.234 2
  20678250.142    -1210382.215 7   -943159.008 9
 91 12  4 16 52 30.0000000  0  4 17 23 21  3
  20836324.109    -2046587.268 8  -1594746.334 9
  21501440.659    -8772279.787 7  -6835541.834 8
  24726459.234     -800282.018 4   -623595.560 1
  20681240.272    -1194662.481 8   -930909.936 9
 91 12  4 16 53  0.0000000  0  4 17 23 21  3
  20835668.469    -2050020.091 8  -1597421.314 9
  21491051.357    -8826886.077 7  -6878092.200 8
  24707954.535     -897543.325 4   -699383.376 2
  20684330.828    -1178420.625 7   -918254.015 9
 91 12  4 16 53 30.0000000  0  4 17 23 21  3
  20835057.485    -2053223.267 8  -1599917.349 9
  21480741.490    -8881066.268 7  -6920310.538 8
  24689485.224     -994617.724 5   -775025.522 2
  20687523.921    -1161655.453 7   -905190.319 9
 91 12  4 16 54  0.0000000  0  4 17 23 21  3
  20834494.471    -2056195.311 8  -1602233.278 9
  21470512.870    -8934821.212 7  -6962197.519 8
  24671047.097    -1091497.425 5   -850516.004 2
  20690814.142    -1144347.413 7   -891703.613 9
 91 12  4 16 54 30.0000000  0  4 17 23 21  3
  20833966.253    -2058966.648 8  -1604392.814 9
  21460359.496    -8988169.866 7  -7003767.909 8
  24652637.135    -1188217.291 4   -925882.408 2
  20694205.103    -1126528.818 8   -877819.080 9
 91 12  4 16 55  0.0000000  0  4 17 23 21  3
  20833485.674    -2061512.420 8  -1606376.593 9
  21450287.073    -9041094.711 7  -7045008.056 8
  24634262.562    -1284768.349 4  -1001116.775 2
  20697695.286    -1108187.946 8   -863527.575 9
 91 12  4 16 55 30.0000000  0  4 17 23 21  3
  20833039.280    -2063834.340 8  -1608185.933 9
  21440295.584    -9093609.067 7  -7085928.340 8
  24615919.748    -1381160.141 4  -1076227.074 2
  20701284.395    -1089334.910 8   -848836.977 9
 91 12  4 16 56  0.0000000  0  4 17 23 21  3
  20832648.657    -2065890.478 8  -1609788.174 9
  21430384.157    -9145682.793 7  -7126505.288 8
  24597609.932    -1477379.640 4  -1151203.121 2
  20704977.245    -1069943.470 8   -833726.838 9
 91 12  4 16 56 30.0000000  0  4 17 23 21  3
  20832308.098    -2067669.965 8  -1611174.843 9
  21420564.449    -9197297.516 7  -7166724.559 8
  24579330.690    -1573428.090 4  -1226045.909 3
  20708769.317    -1050012.595 8   -818196.361 9
 91 12  4 16 57  0.0000000  0  4 17 23 21  3
  20832021.496    -2069187.688 8  -1612357.526 9
  21410824.487    -9248483.548 7  -7206609.781 9
  24561091.914    -1669326.648 4  -1300771.931 1
  20712655.532    -1029558.487 8   -802258.154 9
 91 12  4 16 57 30.0000000  0  4 17 23 21  3
  20831778.955    -2070466.318 8  -1613353.897 9
  21401161.883    -9299248.347 7  -7246166.774 8
  24542866.331    -1765075.152 4  -1375381.036 2
  20716652.069    -1008588.169 7   -785917.741 8
 91 12  4 16 58  0.0000000  0  4 17 23 21  3
  20831586.497    -2071480.298 8  -1614144.051 9
  21391587.716    -9349559.000 7  -7285369.884 9
  24524680.918    -1860649.196 4  -1449854.229 2
  20720745.733     -987071.563 7   -769151.626 9
 91 12  4 16 58 30.0000000  0  4 17 23 21  3
  20831443.196    -2072249.741 8  -1614743.664 9
  21382095.985    -9399444.907 7  -7324242.019 8
  24506526.392    -1956051.650 4  -1524193.741 2
  20724941.620     -965018.832 7   -751967.746 8
 91 12  4 16 59  0.0000000  0  4 17 23 21  3
  20831335.563    -2072798.439 8  -1615171.263 9
  21372678.608    -9448936.300 7  -7362806.733 9
  24488403.922    -2051278.240 5  -1598396.235 2
  20729237.340     -942439.952 8   -734373.880 9
 91 12  4 16 59 30.0000000  0  4 17 23 21  3
  20831277.104    -2073127.212 8  -1615427.491 9
  21363332.865    -9498038.848 7  -7401068.457 8
  24470316.545    -2146320.411 5  -1672455.075 2
  20733636.208     -919335.948 8   -716370.826 8
 91 12  4 17  0  0.0000000  0  4 17 23 21  3
  20831251.016    -2073221.736 8  -1615501.210 9
  21354064.496    -9546744.847 7  -7439021.179 9
  24452266.353    -2241168.173 5  -1746362.457 2
  20738134.595     -895695.014 8   -697949.396 8
 91 12  4 17  0 30.0000000  0  4 17 23 21  3
  20831283.701    -2073091.313 8  -1615399.614 9
  21344875.543    -9595047.331 7  -7476659.467 9
  24434261.114    -2335810.189 5  -1820109.515 2
  20742735.206     -871514.604 7   -679107.581 8
 91 12  4 17  1  0.0000000  0  4 17 23 21  3
  20831347.551    -2072733.668 8  -1615120.968 9
  21335766.058    -9642918.899 8  -7513961.972 9
  24416284.964    -2430254.731 4  -1893702.756 3
  20747439.540     -846797.676 7   -659847.708 9
 91 12  4 17  1 30.0000000  0  4 17 23 21  3
  20831458.185    -2072155.978 8  -1614670.850 9
  21326738.100    -9690353.700 7  -7550924.143 9
  24398342.982    -2524535.049 4  -1967168.016 1
  20752240.130     -821562.168 7   -640183.739 8
 91 12  4 17  2  0.0000000  0  4 17 23 21  3
  20831612.271    -2071345.232 8  -1614039.138 9
  21317801.896    -9737320.829 7  -7587521.880 9
  24380432.183    -2618646.052 4  -2040501.372 3
  20757146.224     -795788.505 7   -620100.429 8
 91 12  4 17  2 30.0000000  0  4 17 23 21  3
  20831819.440    -2070247.345 8  -1613183.667 9
  21308960.115    -9783777.006 7  -7623721.480 9
  24362572.636    -2712542.276 5  -2113667.382 3
  20762161.451     -769429.552 7   -599561.046 8
 91 12  4 17  3  0.0000000  0  4 17 23 21  3
  20832068.856    -2068939.042 8  -1612164.257 9
  21300199.582    -9829819.430 7  -7659598.668 8
  24344728.392    -2806307.224 5  -2186731.102 4
  20767273.510     -742568.629 7   -578630.508 9
 91 12  4 17  3 30.0000000  0  4 17 23 21  3
  20832362.962    -2067410.955 8  -1610973.572 9
  21291513.388    -9875456.933 7  -7695160.331 8
  24326910.830    -2899914.615 5  -2259672.043 4
  20772480.917     -715186.757 7   -557294.050 8
 91 12  4 17  4  0.0000000  0  4 17 23 21  3
  20832696.627    -2065650.464 8  -1609601.801 9
  21282910.552    -9920683.519 7  -7730401.801 9
  24309130.140    -2993338.748 4  -2332470.151 2
  20777797.125     -687261.248 7   -535533.966 8
 91 12  4 17  4 30.0000000  0  4 17 23 21  3
  20833072.871    -2063671.737 8  -1608059.974 9
  21274375.756    -9965522.877 7  -7765341.530 9
  24291382.134    -3086575.401 5  -2405122.129 4
  20783211.090     -658806.909 8   -513361.810 8
 91 12  4 17  5  0.0000000  0  4 17 23 21  3
  20833488.972    -2061480.025 8  -1606352.187 9
  21265918.612   -10009966.702 7  -7799973.054 9
  24273687.770    -3179625.558 5  -2477628.741 3
  20788729.355     -629824.135 8   -490777.882 9
 91 12  4 17  5 30.0000000  0  4 17 23 21  3
  20833951.560    -2059045.924 8  -1604455.528 9
  21257540.902   -10053984.217 8  -7834272.391 9
  24256018.308    -3272474.215 5  -2549978.252 2
  20794347.174     -600292.750 7   -467766.474 8
 91 12  4 17  6  0.0000000  0  4 17 23 21  3
  20834463.601    -2056357.551 8  -1602360.738 9
  21249248.053   -10097561.133 7  -7868228.394 9
  24238390.517    -3365120.452 5  -2622169.982 1
  20800070.514     -570211.819 7   -444326.832 8
 91 12  4 17  6 30.0000000  0  4 17 23 21  3
  20835027.209    -2053401.832 8  -1600057.615 9
  21241040.639   -10140697.059 7  -7901840.784 9
  24220799.895    -3457553.731 5  -2694195.727 2
  20805901.766     -539578.342 7   -420456.630 8
 91 12  4 17  7  0.0000000  0  4 17 23 21  3
  20835639.694    -2050181.294 8  -1597548.146 9
  21232916.865   -10183386.415 8  -7935105.192 9
  24203248.535    -3549780.141 5  -2766060.225 3
  20811836.166     -508390.179 7   -396154.215 8
 91 12  4 17  7 30.0000000  0  4 17 23 21  3
  20836295.333    -2046739.438 8  -1594866.234 9
  21224870.133   -10225668.260 7  -7968052.065 9
  24185733.473    -3641824.222 5  -2837783.101 2
  20817871.289     -476677.062 7   -371442.745 8
 91 12  4 17  8  0.0000000  0  4 17 23 21  3
  20836991.457    -2043091.020 8  -1592023.357 9
  21216902.539   -10267543.045 7  -8000681.756 9
  24168253.467    -3733682.109 5  -2909360.926 2
  20824005.634     -444436.927 7   -346320.594 8
 91 12  4 17  8 30.0000000  0  4 17 23 21  3
  20837724.436    -2039223.214 8  -1589009.537 9
  21209015.895   -10308989.430 7  -8032977.622 9
  24150811.835    -3825333.491 5  -2980777.743 2
  20830244.627     -411646.185 7   -320769.402 8
 91 12  4 17  9  0.0000000  0  4 17 23 21  3
  20838505.403    -2035112.938 8  -1585806.775 9
  21201216.206   -10349968.205 8  -8064909.119 9
  24133413.392    -3916753.651 5  -3052014.418 3
  20836596.629     -378279.410 7   -294769.354 8
 91 12  4 17  9 30.0000000  0  4 17 23 21  3
  20839338.826    -2030753.803 8  -1582410.101 9
  21193508.236   -10390480.427 7  -8096477.074 9
  24116053.601    -4007952.114 5  -3123078.328 2
  20843052.948     -344342.188 7   -268324.789 8
 91 12  4 17 10  0.0000000  0  4 17 23 21  3
  20840213.326    -2026150.660 8  -1578823.289 9
  21185888.109   -10430538.288 7  -8127690.979 9
  24098744.783    -4098946.280 5  -3193983.093 3
  20849613.619     -309853.664 7   -241450.652 8
 91 12  4 17 10 30.0000000  0  4 17 23 21  3
  20841137.577    -2021293.322 8  -1575038.402 9
  21178346.230   -10470149.774 7  -8158557.069 9
  24081472.837    -4189718.058 5  -3264714.514 2
  20856284.296     -274810.220 7   -214144.110 8
 91 12  4 17 11  0.0000000  0  4 17 23 21  3
  20842109.816    -2016186.299 8  -1571058.951 9
  21170894.900   -10509315.239 7  -8189075.607 9
  24064239.577    -4280266.215 5  -3335271.743 5
  20863059.012     -239213.953 7   -186406.791 7
 91 12  4 17 11 30.0000000  0  4 17 23 21  3
  20843124.912    -2010839.644 8  -1566892.776 9
  21163521.799   -10548042.078 7  -8219252.354 9
  24047047.379    -4370593.583 5  -3405656.911 2
  20869936.544     -203063.493 7   -158237.639 8
 91 12  4 17 12  0.0000000  0  4 17 23 21  3
  20844186.165    -2005281.539 8  -1562561.830 9
  21156235.338   -10586357.828 7  -8249108.769 9
  24029898.945    -4460709.909 5  -3475877.671 3
  20876920.801     -166375.574 7   -129649.695 7
 91 12  4 17 12 30.0000000  0  4 17 23 21  3
  20845281.009    -1999515.665 8  -1558068.980 9
  21149021.139   -10624259.944 8  -8278642.878 9
  24012792.182    -4550628.859 5  -3545944.148 4
  20884002.798     -129152.016 7   -100644.368 8
 91 12  4 17 13  0.0000000  0  4 17 23 21  3
  20846418.432    -1993545.850 8  -1553417.223 9
  21141892.970   -10661733.741 8  -8307843.229 9
  23995716.603    -4640370.171 5  -3615872.689 3
  20891188.239      -91396.974 7    -71224.894 8
 91 12  4 17 13 30.0000000  0  4 17 23 21  3
  20847592.116    -1987365.676 8  -1548601.537 9
  21134839.749   -10698790.771 7  -8336718.824 9
  23978668.910    -4729942.170 5  -3685668.851 3
  20898471.681      -53115.951 7    -41395.562 8
 91 12  4 17 14  0.0000000  0  4 17 23 21  3
  20848811.973    -1980951.509 8  -1543603.514 9
  21127869.573   -10735425.905 7  -8365265.675 9
  23961654.197    -4819339.876 5  -3755329.185 3
  20905855.880      -14301.534 7    -11150.606 8
 91 12  4 17 14 30.0000000  0  4 17 23 21  3
  20850078.597    -1974295.262 8  -1538416.863 9
  21120976.144   -10771640.509 7  -8393484.823 9
  23944676.043    -4908557.359 5  -3824849.107 4
  20913344.990       25051.697 7     19514.205 8
 91 12  4 17 15  0.0000000  0  4 17 23 21  3
  20851385.985    -1967430.690 8  -1533067.871 9
  21114159.164   -10807474.125 7  -8421407.104 9
  23927732.684    -4997601.229 5  -3894233.766 3
  20920934.543       64917.829 7     50578.678 8
 91 12  4 17 15 30.0000000  0  4 17 23 21  3
  20852734.451    -1960347.455 8  -1527548.492 9
  21107407.553   -10842934.192 7  -8449038.304 9
  23910827.087    -5086452.773 5  -3963468.544 2
  20928618.223      105307.528 7     82051.117 7
 91 12  4 17 16  0.0000000  0  4 17 23 21  3
  20854124.884    -1953041.995 8  -1521855.942 9
  21100735.060   -10878013.852 7  -8476373.078 9
  23893957.159    -5175095.511 5  -4032540.635 2
  20936407.424      146230.103 7    113938.793 7
 91 12  4 17 16 30.0000000  0  4 17 23 21  3
  20855555.505    -1945536.595 8  -1516007.594 9
  21094131.828   -10912717.579 8  -8503414.931 9
  23877130.106    -5263532.658 5  -4101452.526 4
  20944293.160      187675.123 7    146233.556 8
 91 12  4 17 17  0.0000000  0  4 17 23 21  3
  20857016.385    -1937855.004 8  -1510021.954 9
  21087593.668   -10947065.929 7  -8530179.865 9
  23860333.940    -5351800.852 5  -4170232.750 2
  20952276.338      229607.923 7    178908.396 9
 91 12  4 17 17 30.0000000  0  4 17 23 21  3
  20858515.952    -1929974.502 8  -1503881.328 9
  21081126.547   -10981046.765 8  -8556658.423 9
  23843568.033    -5439904.731 5  -4238884.966 1
  20960348.251      272040.863 7    211972.951 8
 91 12  4 17 18  0.0000000  0  4 17 23 21  3
  20860052.391    -1921887.559 8  -1497579.822 9
  21074733.172   -11014647.538 8  -8582840.845 9
  23826827.323    -5527838.567 5  -4307404.660 2
  20968519.402      314979.801 7    245431.802 7
 91 12  4 17 18 30.0000000  0  4 17 23 21  3
  20861632.299    -1913599.830 8  -1491121.870 9
  21068410.242   -11047866.185 8  -8608725.508 9
  23810130.083    -5615608.868 5  -4375796.935 3
  20976785.571      358418.075 7    279279.742 7
 91 12  4 17 19  0.0000000  0  4 17 23 21  3
  20863247.282    -1905108.286 8  -1484505.091 9
  21062162.576   -11080690.457 8  -8634302.862 9
  23793462.524    -5703204.979 5  -4444053.483 3
  20985149.181      402370.633 7    313528.426 7
 91 12  4 17 19 30.0000000  0  4 17 23 21  3
  20864903.936    -1896394.178 8  -1477714.892 9
  21056003.940   -11113076.133 8  -8659538.461 9
  23776833.933    -5790592.469 5  -4512147.510 3
  20993619.220      446875.228 7    348207.262 7
 91 12  4 17 20  0.0000000  0  4 17 23 21  3
  20866601.353    -1887494.883 8  -1470780.398 9
  21049920.847   -11145036.694 7  -8684442.809 9
  23760239.526    -5877793.509 5  -4580096.206 3
  21002184.886      491905.113 7    383295.421 8
 91 12  4 17 20 30.0000000  0  4 17 23 21  3
  20868323.952    -1878429.594 8  -1463716.553 9
  21043921.689   -11176570.036 8  -8709014.245 9
  23743675.989    -5964812.107 5  -4647902.766 2
  21010856.091      537454.184 7    418788.134 8
 91 12  4 17 21  0.0000000  0  4 17 23 21  3
  20870090.943    -1869142.091 8  -1456479.570 9
  21038010.096   -11207626.280 7  -8733213.914 9
  23727165.832    -6051587.718 6  -4715519.993 3
  21019631.614      583578.877 7    454729.377 7
 91 12  4 17 21 30.0000000  0  4 17 23 21  3
  20871897.791    -1859653.325 8  -1449085.753 9
  21032178.826   -11238266.667 7  -8757089.551 9
  23710688.935    -6138157.706 5  -4782977.005 4
  21028509.674      630232.790 7    491082.995 8
 91 12  4 17 22  0.0010000  0  4 17 23 21  3
  20873747.797    -1849940.471 8  -1441517.309 9
  21026426.103   -11268503.348 7  -8780650.610 9
  23694257.604    -6224503.354 5  -4850259.228 4
  21037492.648      677427.327 7    527857.878 7
 91 12  4 17 22 30.0010000  0  4 17 23 21  3
  20875632.595    -1840012.371 8  -1433781.158 9
  21020748.047   -11298351.303 8  -8803908.765 9
  23677870.645    -6310621.391 5  -4917364.091 3
  21046571.856      725148.881 7    565043.426 7
 91 12  4 17 23  0.0010000  0  4 17 23 21  3
  20877571.959    -1829847.067 8  -1425860.164 9
  21015140.419   -11327814.511 8  -8826867.113 9
  23661528.673    -6396522.186 6  -4984299.684 2
  21055752.102      773401.024 7    602642.410 7
 91 12  4 17 23 30.0010000  0  4 17 23 21  3
  20879549.383    -1819446.159 8  -1417755.591 9
  21009608.945   -11356884.677 7  -8849519.201 9
  23645219.647    -6482221.024 5  -5051077.921 2
  21065035.478      822182.925 7    640654.190 8
 91 12  4 17 24  0.0010000  0  4 17 23 21  3
  20881569.996    -1808821.613 8  -1409476.766 9
  21004154.827   -11385544.964 7  -8871851.896 9
  23628946.325    -6567732.575 5  -5117710.215 3
  21074419.280      871489.883 7    679075.108 7
 91 12  4 17 24 30.0010000  0  4 17 23 21  3
  20883640.063    -1797945.805 8  -1401002.144 9
  20998784.644   -11413755.650 8  -8893834.253 9
  23612711.654    -6653035.968 5  -5184180.326 3
  21083910.105      921350.331 7    717927.322 7
 91 12  4 17 25  0.0010000  0  4 17 23 21  3
  20885761.696    -1786812.921 8  -1392327.204 9
  20993501.399   -11441522.326 8  -8915470.630 9
  23596516.875    -6738134.558 6  -5250490.886 4
  21093501.076      971768.310 7    757213.980 8
 91 12  4 17 25 30.0010000  0  4 17 23 21  3
  20887924.685    -1775443.404 8  -1383467.886 9
  20988301.496   -11468854.123 8  -8936768.141 9
  23580367.658    -6823020.131 6  -5316635.431 2
  21103199.663     1022736.243 7    796929.169 7
 91 12  4 17 26  0.0010000  0  4 17 23 21  3
  20890131.160    -1763844.228 8  -1374429.610 9
  20983179.840   -11495751.360 8  -8957727.037 9
  23564257.408    -6907672.060 6  -5382597.930 4
  21113005.272     1074257.872 7    837075.802 7
 91 12  4 17 26 30.0010000  0  4 17 23 21  3
  20892379.900    -1752027.892 8  -1365222.112 9
  20978142.730   -11522227.230 8  -8978357.586 9
  23548196.315    -6992083.305 6  -5448372.906 4
  21122913.418     1126328.032 7    877649.879 8
 91 12  4 17 27  0.0010000  0  4 17 23 21  3
  20894664.919    -1739998.812 8  -1355848.849 9
  20973182.959   -11548283.694 8  -8998661.324 9
  23532175.409    -7076244.507 6  -5513953.011 4
  21132930.070     1178948.208 7    918652.546 6
 91 12  4 17 27 30.0010000  0  4 17 23 21  3
  20896996.704    -1727760.979 8  -1346312.917 9
  20968307.141   -11573921.458 7  -9018638.815 9
  23516213.870    -7160149.140 6  -5579333.204 3
  21143044.774     1232112.419 7    960079.137 7
 91 12  4 17 28  0.0010000  0  4 17 23 21  3
  20899365.973    -1715302.101 8  -1336604.736 9
  20963505.365   -11599147.664 7  -9038295.602 9
  23500296.392    -7243803.257 6  -5644518.211 2
  21153267.705     1285823.384 7   1001931.760 7
 91 12  4 17 28 30.0010000  0  4 17 23 21  3
  20901788.586    -1702596.195 8  -1326704.080 9
  20958781.835   -11623974.447 7  -9057641.155 9
  23484418.177    -7327206.577 6  -5709507.769 3
  21163590.748     1340086.712 7   1044214.817 7
 91 12  4 17 29  0.0010000  0  4 17 23 21  3
  20904251.388    -1689642.685 8  -1316610.473 9
  20954132.958   -11648403.709 7  -9076676.950 9
  23468598.734    -7410368.099 6  -5774308.925 3
  21174022.034     1394897.218 7   1086924.257 7
 91 12  4 17 29 30.0010000  0  4 17 23 21  3
  20906761.253    -1676436.316 8  -1306319.824 9
  20949558.418   -11672441.382 8  -9095407.602 9
  23452817.647    -7493292.251 6  -5838925.106 4
  21184554.044     1450247.887 7   1130054.587 7
 91 12  4 17 30  0.0010000  0  4 17 23 21  3
  20909323.573    -1662976.769 8  -1295831.898 9
  20945060.938   -11696088.152 8  -9113833.660 9
  23437080.954    -7575988.510 6  -5903363.699 4
  21195189.480     1506138.268 7   1173605.480 7
 91 12  4 17 30 30.0010000  0  4 17 23 21  3
  20911933.270    -1649257.804 8  -1285141.829 9
  20940638.704   -11719309.905 8  -9131928.538 9
  23421394.604    -7658437.494 6  -5967609.613 2
  21205934.033     1562581.517 7   1217587.191 7
 91 12  4 17 31  0.0010000  0  4 17 23 21  3
  20914593.626    -1635285.714 8  -1274254.516 9
  20936308.502   -11742087.389 8  -9149677.219 9
  23405744.847    -7740631.750 6  -6031657.045 1
  21216779.622     1619581.571 7   1262002.750 7
 91 12  4 17 31 30.0010000  0  4 17 23 21  3
  20917299.247    -1621071.213 8  -1263178.317 9
  20932053.546   -11764428.770 8  -9167086.083 9
  23390153.532    -7822580.756 6  -6095513.388 2
  21227730.454     1677127.673 7   1306843.815 7
 91 12  4 17 32  0.0010000  0  4 17 23 21  3
  20920049.559    -1606625.668 8  -1251922.076 9
  20927889.732   -11786327.690 8  -9184150.180 9
  23374599.402    -7904293.054 6  -6159185.279 4
  21238783.492     1735220.595 7   1352110.968 7
 91 12  4 17 32 30.0010000  0  4 17 23 21  3
  20922837.318    -1591957.393 8  -1240492.274 9
  20923803.258   -11807786.701 8  -9200871.469 9
  23359106.436    -7985759.664 6  -6222665.727 4
  21249944.163     1793861.433 7   1397805.058 7
 91 12  4 17 33  0.0010000  0  4 17 23 21  3
  20925672.158    -1577068.211 8  -1228890.338 9
  20919799.532   -11828821.702 8  -9217262.371 9
  23343641.634    -8066983.745 6  -6285957.172 3
  21261205.573     1853049.177 7   1443925.305 7
 91 12  4 17 33 30.0010000  0  4 17 23 21  3
  20928548.373    -1561962.304 8  -1217119.524 9
  20915880.039   -11849440.396 8  -9233328.879 9
  23328233.493    -8147977.355 6  -6349069.058 4
  21272571.598     1912779.120 7   1490468.047 7
 91 12  4 17 34  0.0010000  0  4 17 23 21  3
  20931462.053    -1546649.787 8  -1205187.726 9
  20912027.397   -11869667.831 8  -9249090.498 9
  23312864.947    -8228743.447 6  -6412003.644 4
  21284041.068     1973046.077 7   1537429.237 7
 91 12  4 17 34 30.0010000  0  4 17 23 21  3
  20934417.405    -1531118.815 8  -1193085.693 9
  20908253.909   -11889500.690 8  -9264544.660 9
  23297542.242    -8309269.129 6  -6474750.882 4
  21295610.964     2033852.636 7   1584810.894 7
 91 12  4 17 35  0.0010000  0  4 17 23 21  3
  20937417.725    -1515349.914 8  -1180798.254 9
  20904559.873   -11908922.632 8  -9279678.630 9
  23282263.931    -8389550.081 6  -6537307.399 5
  21307286.677     2095202.233 7   1632615.692 7
 91 12  4 17 35 30.0010000  0  4 17 23 21  3
  20940469.908    -1499310.664 8  -1168300.167 9
  20900947.381   -11927910.027 8  -9294473.988 9
  23267037.167    -8469559.563 6  -6599652.376 5
  21319066.412     2157114.089 7   1680858.616 7
 91 12  4 17 36  0.0010000  0  4 17 23 21  3
  20943568.561    -1483010.029 8  -1155598.404 9
  20897413.730   -11946471.661 8  -9308937.577 9
  23251864.674    -8549303.227 6  -6661790.213 4
  21330951.389     2219572.596 7   1729527.498 7
 91 12  4 17 36 30.0010000  0  4 17 23 21  3
  20946727.190    -1466429.589 8  -1142678.606 9
  20893965.514   -11964589.900 8  -9323055.665 9
  23236740.745    -8628776.184 6  -6723717.086 5
  21342943.091     2282581.938 7   1778625.605 7
 91 12  4 17 37  0.0010000  0  4 17 23 21  3
  20949931.067    -1449578.955 8  -1129548.273 9
  20890598.844   -11982286.588 7  -9336845.272 9
  23221666.270    -8707991.958 6  -6785443.537 4
  21355036.110     2346133.396 7   1828146.136 7
 91 12  4 17 37 30.0010000  0  4 17 23 21  3
  20953186.807    -1432463.664 8  -1116211.711 9
  20887310.123   -11999564.434 8  -9350308.513 9
  23206642.470    -8786952.443 6  -6846971.058 5
  21367233.480     2410231.955 7   1878092.981 6
 91 12  4 17 38  0.0010000  0  4 17 23 21  3
  20956495.926    -1415095.261 8  -1102677.917 9
  20884102.337   -12016419.470 8  -9363442.291 9
  23191664.843    -8865654.442 6  -6908297.150 5
  21379537.559     2474882.250 7   1928469.752 7
 91 12  4 17 38 30.0010000  0  4 17 23 21  3
  20959847.607    -1397479.491 8  -1088951.379 9
  20880973.705   -12032859.875 8  -9376252.988 9
  23176741.469    -8944092.763 6  -6969417.772 4
  21391944.158     2540085.451 7   1979277.361 7
 91 12  4 17 39  0.0010000  0  4 17 23 21  3
  20963242.756    -1379636.486 8  -1075047.780 9
  20877923.616   -12048885.993 8  -9388740.868 9
  23161859.784    -9022274.455 6  -7030338.394 5
  21404455.405     2605834.293 7   2030510.141 7
 91 12  4 17 39 30.0010000  0  4 17 23 21  3
  20966681.060    -1361572.203 8  -1060971.757 9
  20874952.978   -12064493.575 8  -9400902.626 9
  23147038.040    -9100198.274 6  -7091058.095 4
  21417070.971     2672123.572 7   2082164.043 7
 91 12  4 17 40  0.0010000  0  4 17 23 21  3
  20970158.365    -1343287.219 8  -1046723.758 9
  20872064.479   -12079694.484 8  -9412747.500 9
  23132253.465    -9177855.697 6  -7151570.211 4
  21429788.166     2738943.557 7   2134231.480 7
 91 12  4 17 40 30.0010000  0  4 17 23 21  3
  20973681.826    -1324773.542 8  -1032297.553 9
  20869245.518   -12094487.669 8  -9424274.661 9
  23117526.773    -9255248.448 6  -7211876.077 5
  21442602.803     2806290.587 7   2186709.607 7
 91 12  4 17 41  0.0010000  0  4 17 23 21  3
  20977250.256    -1306022.367 8  -1017686.282 9
  20866511.715   -12108861.917 8  -9435475.380 9
  23102850.721    -9332374.577 6  -7271974.194 4
  21455518.459     2874168.588 7   2239601.469 7
 91 12  4 17 41 30.0010000  0  4 17 23 21  3
  20980868.750    -1287022.908 8  -1002881.563 9
  20863852.249   -12122832.137 8  -9446361.276 9
  23088226.845    -9409215.996 6  -7331850.449 4
  21468537.247     2942578.849 7   2292908.076 6
 91 12  4 17 42  0.0010000  0  4 17 23 21  3
  20984532.214    -1267765.777 8   -987876.053 9
  20861270.437   -12136402.989 8  -9456935.977 9
  23073660.241    -9485762.944 6  -7391497.237 5
  21481657.053     3011526.734 7   2346633.632 6
 91 12  4 17 42 30.0010000  0  4 17 23 21  3
  20988245.446    -1248254.966 8   -972672.869 9
  20858763.870   -12149581.273 8  -9467204.781 9
  23059145.778    -9562043.577 6  -7450936.521 4
  21494877.303     3081006.901 7   2400773.950 7
 91 12  4 17 43  0.0010000  0  4 17 23 21  3
  20992006.334    -1228488.282 8   -957270.311 9
  20856330.158   -12162369.224 8  -9477169.433 9
  23044676.302    -9638064.044 6  -7510173.074 3
  21508202.185     3151020.988 7   2455330.296 7
 91 12  4 17 43 30.0010000  0  4 17 23 21  3
  20995816.397    -1208461.033 8   -941664.733 9
  20853972.599   -12174760.697 8  -9486825.154 9
  23030260.782    -9713833.845 6  -7569214.324 4
  21521628.679     3221568.598 7   2510302.371 6
 91 12  4 17 44  0.0010000  0  4 17 23 21  3
  20999677.118    -1188173.750 8   -925856.524 9
  20851692.379   -12186723.313 8  -9496146.690 9
  23015883.338    -9789375.545 6  -7628077.822 5
  21535156.228     3292654.553 7   2565693.930 7
 91 12  4 17 44 30.0010000  0  4 17 23 21  3
  21003587.922    -1167612.728 8   -909835.007 9
  20849502.691   -12198237.053 8  -9505118.445 9
  23001551.753    -9864688.627 6  -7686763.180 5
  21548785.685     3364286.470 7   2621510.931 7
 91 12  4 17 45  0.0010000  0  4 17 23 21  3
  21007553.571    -1146784.965 8   -893605.652 9
  20847396.642   -12209301.254 8  -9513739.904 9
  22987266.953    -9939753.781 6  -7745255.355 4
  21562519.478     3436461.199 7   2677750.908 7
 91 12  4 17 45 30.0010000  0  4 17 23 21  3
  21011566.301    -1125689.590 8   -877167.753 9
  20845376.639   -12219916.894 8  -9522011.842 9
  22973032.199   -10014553.113 6  -7803540.393 5
  21576359.699     3509183.668 7   2734417.693 7
 91 12  4 17 46  0.0010000  0  4 17 23 21  3
  21015631.486    -1104332.226 8   -860525.707 9
  20843439.386   -12230103.811 8  -9529949.697 9
  22958851.716   -10089067.045 6  -7861603.067 4
  21590302.737     3582454.043 7   2791511.416 7
 91 12  4 17 46 30.0010000  0  4 17 23 21  3
  21019743.141    -1082721.736 8   -843686.421 9
  20841579.175   -12239884.614 8  -9537571.107 9
  22944735.398   -10163269.828 6  -7919423.302 4
  21604348.627     3656265.720 7   2849026.931 7
 91 12  4 17 47  0.0010000  0  4 17 23 21  3
  21023900.656    -1060885.272 8   -826671.056 9
  20839792.413   -12249270.682 8  -9544884.931 9
  22930673.017   -10237164.695 6  -7977003.598 4
  21618497.019     3730610.033 7   2906957.486 6
 91 12  4 17 47 30.0010000  0  4 17 23 21  3
  21028097.747    -1038816.663 8   -809474.799 9
  20838081.803   -12258264.641 8  -9551893.216 9
  22916666.722   -10310760.342 6  -8034350.754 5
  21632744.668     3805486.708 7   2965302.878 6
 91 12  4 17 48  0.0010000  0  4 17 23 21  3
  21032346.718    -1016508.399 8   -792091.788 9
  20836442.826   -12266870.653 8  -9558599.198 9
  22902718.275   -10384062.564 6  -8091469.274 5
  21647091.225     3880889.883 7   3024058.511 5
 91 12  4 17 48 30.0010000  0  4 17 23 21  3
  21036636.732     -993947.219 8   -774511.688 9
  20834880.909   -12275081.846 8  -9564997.537 9
  22888821.096   -10457084.945 6  -8148369.750 5
  21661543.024     3956818.955 7   3083223.934 6
 91 12  4 17 49  0.0010000  0  4 17 23 21  3
  21040981.923     -971126.987 8   -756729.741 9
  20833390.643   -12282901.132 8  -9571090.490 9
  22874977.890   -10529844.090 6  -8205065.110 4
  21676091.358     4033273.934 7   3142799.168 6
 91 12  4 17 49 30.0010000  0  4 17 23 21  3
  21045376.883     -948022.334 8   -738726.160 9
  20831979.828   -12290325.779 8  -9576875.934 9
  22861185.622   -10602324.873 6  -8261543.585 5
  21690741.008     4110257.047 7   3202785.933 6
 91 12  4 17 50  0.0010000  0  4 17 23 21  3
  21049825.205     -924650.051 8   -720514.031 9
  20830639.442   -12297361.076 8  -9582357.996 9
  22847444.047   -10674532.480 6  -8317809.194 4
  21705488.396     4187756.328 7   3263174.905 6
 91 12  4 17 50 30.0010000  0  4 17 23 21  3
  21054319.997     -901028.466 8   -702107.655 9
  20829380.321   -12304004.970 8  -9587535.063 9
  22833754.316   -10746468.850 6  -8373863.454 5
  21720334.431     4265771.225 7   3323965.639 7
 91 12  4 17 51  0.0010000  0  4 17 23 21  3
  21058858.555     -877173.656 8   -683519.535 9
  20828185.051   -12310257.648 8  -9592407.297 9
  22820115.558   -10818128.854 6  -8429702.389 4
  21735279.076     4344295.315 7   3385153.145 6
 91 12  4 17 51 30.0010000  0  4 17 23 21  3
  21063443.879     -853082.609 8   -664747.333 9
  20827071.623   -12316127.096 8  -9596980.912 9
  22806534.960   -10889511.474 6  -8485325.181 5
  21750311.270     4423321.201 7   3446731.657 6
 91 12  4 17 52  0.0010000  0  4 17 23 21  3
  21068071.170     -828768.831 8   -645801.571 9
  20826025.046   -12321618.024 8  -9601259.579 9
  22793001.130   -10960630.730 6  -8540742.748 5
  21765446.594     4502848.758 7   3508701.097 6
 91 12  4 17 52 30.0010000  0  4 17 23 21  3
  21072736.556     -804250.697 8   -626696.579 9
  20825047.415   -12326743.040 8  -9605253.112 9
  22779516.178   -11031497.363 6  -8595963.468 6
  21780672.747     4582862.384 7   3571049.282 5
 91 12  4 17 53  0.0010000  0  4 17 23 21  3
  21077450.191     -779493.921 8   -607405.617 9
  20824148.048   -12331486.071 8  -9608948.998 9
  22766079.475   -11102096.460 6  -8650975.729 5
  21795993.654     4663372.545 7   3633784.366 6
 91 12  4 17 53 30.0010000  0  4 17 23 21  3
  21082203.997     -754490.042 8   -587922.118 9
  20823318.220   -12335842.945 8  -9612343.992 9
  22752697.043   -11172433.910 6  -8705784.124 5
  21811408.373     4744376.894 7   3696904.547 6
 91 12  4 17 54  0.0010000  0  4 17 23 21  3
  21087009.665     -729238.297 8   -568245.483 9
  20822566.046   -12339794.066 8  -9615422.814 9
  22739358.672   -11242512.978 6  -8760391.192 5
  21826919.331     4825881.155 7   3760414.257 6
 91 12  4 17 54 30.0010000  0  4 17 23 21  3
  21091867.212     -703724.971 8   -548365.011 9
  20821891.805   -12343334.671 8  -9618181.748 9
  22726071.274   -11312332.127 6  -8814795.732 5
  21842524.433     4907883.240 7   3824311.873 6
 91 12  4 17 55  0.0010000  0  4 17 23 21  3
  21096773.899     -677929.916 8   -528265.013 9
  20821298.515   -12346461.727 8  -9620618.447 9
  22712834.830   -11381898.257 6  -8869003.108 5
  21858226.365     4990389.200 7   3888602.121 6
 91 12  4 17 55 30.0010000  0  4 17 23 21  3
  21101733.373     -651863.638 8   -507953.680 9
  20820781.971   -12349172.699 8  -9622730.925 9
  22699644.262   -11451212.216 6  -8923013.996 4
  21874022.128     5073406.665 7   3953290.961 6
 91 12  4 17 56  0.0010000  0  4 17 23 21  3
  21106743.209     -625543.963 8   -487444.891 9
  20820338.578   -12351486.652 8  -9624534.032 9
  22686505.261   -11520269.155 6  -8976824.601 4
  21889913.832     5156929.399 7   4018373.501 6
 91 12  4 17 56 30.0010000  0  4 17 23 21  3
  21111800.404     -598964.112 8   -466733.358 9
  20819977.027   -12353404.477 8  -9626028.473 9
  22673414.526   -11589048.924 6  -9030419.234 5
  21905907.759     5240967.431 7   4083857.571 6
 91 12  4 17 57  0.0010000  0  4 17 23 21  3
  21116908.274     -572131.196 8   -445824.642 9
  20819684.736   -12354934.279 8  -9627220.553 9
  22660383.750   -11657541.537 6  -9083790.115 4
  21921998.221     5325522.632 7   4149744.634 6
 91 12  4 17 57 30.0010000  0  4 17 23 21  3
  21122059.300     -545056.583 8   -424727.594 9
  20819466.190   -12356085.470 8  -9628117.624 9
  22647409.932   -11725731.752 6  -9136925.354 5
  21938185.217     5410589.422 7   4216030.337 6
 91 12  4 17 58  0.0010000  0  4 17 23 21  3
  21127254.997     -517750.188 8   -403449.925 9
  20819314.495   -12356883.510 8  -9628739.509 9
  22634486.772   -11793622.399 6  -9189827.160 5
  21954469.342     5496148.854 7   4282699.915 5
 91 12  4 17 58 30.0010000  0  4 17 23 21  3
  21132500.166     -490186.113 8   -381971.476 9
  20819234.137   -12357317.408 8  -9629077.644 9
  22621625.368   -11861208.552 6  -9242491.675 5
  21970840.997     5582211.776 7   4349761.835 6
 91 12  4 17 59  0.0010000  0  4 17 23 21  3
  21137791.508     -462388.045 8   -360310.688 9
  20819213.458   -12357413.639 8  -9629152.714 9
  22608816.438   -11928519.694 6  -9294941.900 5
  21987311.001     5668746.203 7   4417191.158 6
 91 12  4 17 59 30.0010000  0  4 17 23 21  3
  21143127.209     -434337.256 8   -338452.975 9
  20819263.819   -12357158.545 8  -9628953.943 9
  22596065.371   -11995541.762 6  -9347166.865 5
  22003869.739     5755761.032 7   4484994.824 5
 91 12  4 18  0  0.0010000  0  4 17 23 21  3
  21148514.196     -406029.047 8   -316394.671 9
  20819376.548   -12356555.519 8  -9628484.079 9
  22583362.555   -12062287.637 6  -9399176.608 5
  22020516.915     5843248.639 7   4553166.870 5
 91 12  4 18  0 30.0010000  0  4 17 23 21  3
  21153954.214     -377446.845 8   -294122.881 9
  20819565.708   -12355574.386 8  -9627719.588 9
  22570716.417   -12128747.558 6  -9450963.531 6
  22037258.829     5931215.319 7   4621712.221 5
 91 12  4 18  1  0.0010000  0  4 17 23 21  3
  21159447.316     -348581.991 8   -271630.828 9
  20819827.130   -12354196.233 8  -9626645.736 9
  22558126.330   -12194901.491 7  -9502512.005 5
  22054088.272     6019671.845 7   4690639.282 5
 91 12  4 18  1 30.0010000  0  4 17 23 21  3
  21164993.780     -319426.762 8   -248912.514 9
  20820167.392   -12352410.549 8  -9625254.327 9
  22545594.403   -12260744.709 7  -9553818.377 6
  22071020.254     6108625.358 7   4759953.598 6
 91 12  4 18  2  0.0010000  0  4 17 23 21  3
  21170599.296     -289987.922 8   -225973.222 9
  20820585.604   -12350211.259 8  -9623540.628 9
  22533127.235   -12326285.017 7  -9604888.706 6
  22088037.968     6198080.549 7   4829658.816 6
 91 12  4 18  2 30.0010000  0  4 17 23 21  3
  21176251.579     -260282.648 8   -202826.297 9
  20821081.172   -12347610.040 8  -9621513.734 9
  22520709.834   -12391530.899 7  -9655729.615 6
  22105157.923     6288030.540 7   4899749.622 5
 91 12  4 18  3  0.0010000  0  4 17 23 21  3
  21181949.738     -230341.788 8   -179495.804 9
  20821644.169   -12344647.840 8  -9619205.551 9
  22508339.794   -12456523.479 7  -9706373.147 6
  22122366.612     6378454.006 7   4970209.352 6
 91 12  4 18  3 30.0010000  0  4 17 23 21  3
  21187690.162     -200168.240 8   -155983.998 9
  20822271.347   -12341336.951 8  -9616625.667 9
  22496023.430   -12521267.355 7  -9756822.880 5
  22139660.127     6469346.562 7   5041034.620 5
 91 12  4 18  4  0.0010000  0  4 17 23 21  3
  21193475.869     -169763.984 8   -132292.416 9
  20822966.564   -12337694.054 8  -9613787.065 9
  22483749.924   -12585755.850 7  -9807073.620 6
  22157048.099     6560701.890 7   5112220.468 6
 91 12  4 18  4 30.0010000  0  4 17 23 21  3
  21199305.027     -139123.439 8   -108416.719 9
  20823723.833   -12333722.094 8  -9610692.049 9
  22471526.483   -12649976.977 7  -9857116.013 6
  22174517.303     6652513.476 7   5183761.847 5
 91 12  4 18  5  0.0010000  0  4 17 23 21  3
  21205182.155     -108243.171 8    -84354.223 9
  20824541.673   -12329419.312 8  -9607339.260 9
  22459355.515   -12713934.167 7  -9906952.745 5
  22192074.648     6744774.247 7   5255653.246 6
 91 12  4 18  5 30.0010000  0  4 17 23 21  3
  21211105.161      -77120.738 8    -60103.026 9
  20825425.160   -12324777.748 8  -9603722.481 9
  22447241.800   -12777612.269 7  -9956572.009 6
  22209717.429     6837480.867 7   5327892.057 5
 91 12  4 18  6  0.0010000  0  4 17 23 21  3
  21217072.524      -45772.980 8    -35676.250 9
  20826373.998   -12319793.159 8  -9599838.407 9
  22435175.446   -12841027.492 7 -10005986.417 6
  22227439.364     6930620.741 7   5400468.455 5
 91 12  4 18  6 30.0010000  0  4 17 23 21  3
  21223080.966      -14193.492 8    -11068.903 9
  20827390.298   -12314436.673 8  -9595664.555 9
  22423157.969   -12904179.533 7 -10055195.757 5
  22245248.532     7024202.712 7   5473389.357 5
 91 12  4 18  7  0.0010000  0  4 17 23 21  3
  21229134.970       17620.972 8     13721.526 9
  20828481.845   -12308709.933 8  -9591202.188 9
  22411189.650   -12967068.846 7 -10104200.369 6
  22263143.155     7118230.334 7   5546657.502 5
